Regional Weather Roundup
Issued by NWS San Angelo, TX

Home | Current Version | Previous Version | Text Only | Print | Product List | Glossary On
Versions: 1 2 3 4 5 6 7 8 9 10 11 12 13 14 15 16 17 18 19 20 21 22 23 24 25 26 27 28 29 30 31 32 33 34 35 36 37 38 39 40 41 42 43 44 45 46 47 48 49 50
000
ASUS44 KSJT 282011
RWRSJT
WEST CENTRAL TEXAS REGIONAL WEATHER ROUNDUP
NATIONAL WEATHER SERVICE SAN ANGELO TX
300 PM CDT SAT MAY 28 2016

NOTE: "FAIR" INDICATES FEW OR NO CLOUDS BELOW 12,000 FEET WITH NO
SIGNIFICANT WEATHER AND/OR OBSTRUCTIONS TO VISIBILITY.

TXZ049-054-064>066-071>073-076>078-098-099-113-114-127-128-139-140-
154-155-168>170-282100
...LOCATIONS ACROSS WEST CENTRAL TEXAS...

CITY           SKY/WX    TMP DP  RH WIND       PRES   REMARKS
SAN ANGELO     SUNNY     89  65  44 S8        29.93F
ABILENE        SUNNY     89  58  34 S8G17     29.95S
DYESS AFB      MOSUNNY   90  57  32 SE10      29.92F
JUNCTION       MOSUNNY   89  68  49 S16       29.94F
SWEETWATER     SUNNY     89  51  26 SE9       29.98F
BROWNWOOD      MOSUNNY   88  70  55 S10       29.94F
COLEMAN        PTCLDY    89  64  43 S6        29.95F
SONORA         PTSUNNY   88  66  48 S14       30.00S
OZONA          FAIR      86  64  48 S16       29.98F
BRADY          NOT AVBL
$$

TEXAS PANHANDLE/OKLAHOMA PANHANDLE

CITY           SKY/WX    TMP DP  RH WIND       PRES   REMARKS
AMARILLO       SUNNY     80  43  26 SW9       30.03F
BORGER         SUNNY     80  43  26 CALM      30.01F
CANADIAN       SUNNY     80  49  32 NW9       29.98S
DALHART        SUNNY     76  44  32 SW13G20   30.05F
DUMAS          CLEAR     81  45  28 SW6       30.03F
GUYMON         NOT AVBL
HEREFORD       CLEAR     84  38  19 E7        30.03F
PAMPA          CLEAR     79  44  29 CALM      30.04S
PERRYTON       SUNNY     82  44  26 W10       30.00F
$$

SOUTHERN PANHANDLE/SOUTH PLAINS/ROLLING PLAINS

CITY           SKY/WX    TMP DP  RH WIND       PRES   REMARKS
LUBBOCK        SUNNY     85  43  22 VRB5      29.99F
SNYDER           N/A     88  45  22 E7        29.96F
CHILDRESS      SUNNY     82  47  29 CALM      29.97F
SEMINOLE       CLEAR     90  25   9 W13       29.98F
$$

PERMIAN BASIN

CITY           SKY/WX    TMP DP  RH WIND       PRES   REMARKS
MIDLAND        SUNNY     94  37  13 S16G22    29.93F
ODESSA         SUNNY     94  29  10 S16G22    29.94F
WINK           SUNNY     93  17   6 S9G20     29.92F
$$

FAR WEST/SOUTHWEST MOUNTAINS/TRANS PECOS

CITY           SKY/WX    TMP DP  RH WIND       PRES   REMARKS
ALPINE         CLEAR     89  26  10 SE9G20    30.07S
DRYDEN           N/A     85  68  56 E16G23    29.92F
EL PASO        SUNNY     88  14   6 E16       29.97F
FORT STOCKTON  NOT AVBL
GUADALUPE PASS NOT AVBL
MARFA          SUNNY     86  27  11 S9G20     30.05F
PECOS          CLEAR     92  17   6 CALM      29.91F
$$

DALLAS/FORT WORTH METROPLEX

CITY           SKY/WX    TMP DP  RH WIND       PRES   REMARKS
DFW AIRPORT    MOSUNNY   83  71  67 S7        29.94F
FTW MEACHAM    SUNNY     87  71  58 S12G17    29.93F
DAL-EXECUTIVE  PTSUNNY   81  71  71 SE8       29.95F
GRAND PRAIRIE  MOSUNNY   82  72  69 SE7       29.95F
ADDISON        MOSUNNY   82  72  69 SW10G17   29.96F
MESQUITE       CLOUDY    79  72  78 SE6       29.97S
LANCASTER      CLOUDY    79  70  73 E6        29.97S
$$

NORTH CENTRAL TEXAS

CITY           SKY/WX    TMP DP  RH WIND       PRES   REMARKS
SHRMAN/DENISON CLEAR     80  65  59 SW8       29.96S
GAINESVILLE    MOSUNNY   82  70  67 SE7       29.96S
BRIDGEPORT     PTCLDY    86  70  59 S7        29.94F
DENTON         MOSUNNY   83  71  67 S10       29.93F
WAXAHACHIE     MOCLDY    84  76  76 SE5       29.95F
GRANBURY       CLEAR     87  71  57 SE6       29.94F
$$

WESTERN NORTH TEXAS

CITY           SKY/WX    TMP DP  RH WIND       PRES   REMARKS
WICHITA FALLS  SUNNY     84  64  50 SW7       29.93F
VERNON         CLEAR     84  48  28 E5        29.96S
BRECKENRIDGE   CLEAR     91  62  37 S6        29.92S HAZE
COMANCHE       SUNNY     89  71  56 S6        29.95S
$$

CENTRAL AND SOUTH CENTRAL TEXAS

CITY           SKY/WX    TMP DP  RH WIND       PRES   REMARKS
AUSTIN/BERGSTM PTSUNNY   90  74  59 S15       29.92F
WACO           MOSUNNY   87  73  62 SE8       29.94F
HILLSBORO      MOCLDY    83  72  68 S10       29.95S
TEMPLE         PTSUNNY   88  75  66 S13G24    29.94S
KILLEEN-GRAY   MOSUNNY   89  73  59 SE10      29.93F
FORT HOOD      MOSUNNY   89  74  61 S9        29.91F
GEORGETOWN     PTSUNNY   90  73  58 S12       29.93F
LAGO VISTA     FAIR      90  71  54 S10G17    29.96S
SAN MARCOS     MOSUNNY   90  75  62 S14       29.93F
NEW BRAUNFELS  MOSUNNY   91  74  57 SE13      29.91F
RANDOLPH AFB   MOSUNNY   89  75  63 SE15      29.92F
SAN ANTONIO    MOSUNNY   91  73  55 SE13G21   29.93S
STINSON        MOSUNNY   92  73  53 S9        29.89F
PLEASANTON     NOT AVBL
LA GRANGE        N/A     90  76  64 S8        29.93S
GIDDINGS       PTCLDY    88  73  59 S7        29.98S
$$

EAST TEXAS

CITY           SKY/WX    TMP DP  RH WIND       PRES   REMARKS
PARIS          SUNNY     81  64  57 S10       29.98S
CLARKSVILLE    NOT AVBL
TYLER          CLOUDY    79  70  74 VRB3      29.99F
LONGVIEW       PTSUNNY   82  71  69 W8        29.99S
PALESTINE      MOCLDY    84  74  72 SW8       29.99S
NACOGDOCHES    PTSUNNY   84  73  70 NW7       29.98S
$$

TEXAS HILL COUNTRY AND EDWARDS PLATEAU

CITY           SKY/WX    TMP DP  RH WIND       PRES   REMARKS
LLANO          CLEAR     90  75  62 S8        29.96F
HORSESHOE BAY  MOCLDY    90  70  52 S7G17     29.94F
KERRVILLE      MOSUNNY   89  73  58 S10G17    29.96F
FREDERICKSBRG  PTSUNNY   87  67  52 S14G20    29.97S
ROCKSPRINGS    PTCLDY    86  72  62 S12G18    29.99F
HONDO          PTSUNNY   88  73  61 S15       29.92F
UVALDE         PTCLDY    89  74  60 SE10      29.90F
DEL RIO        MOSUNNY   91  71  51 SE15G26   29.86F
$$

SOUTHEAST TEXAS

CITY           SKY/WX    TMP DP  RH WIND       PRES   REMARKS
COLLEGE STN    MOSUNNY   88  73  61 S10       29.95S
CALDWELL       PTCLDY    88  72  58 S10       29.97S
CROCKETT       MOCLDY    86  73  66 SW9       30.00F
BRENHAM        PTSUNNY   89  74  60 S9        29.95S
HUNTSVILLE     PTSUNNY   88  71  57 S8        29.97S
CONROE         MOSUNNY   89  69  51 S13       29.97S
HOUSTON BUSH   MOSUNNY   89  69  51 S9        29.95F
HOUSTON HOBBY  MOSUNNY   89  69  51 SE12      29.96S
PERLAND        SUNNY     90  69  50 S8        29.98S
WHARTON        CLEAR     88  72  58 S13       29.97S
$$

THE UPPER TEXAS COAST

CITY           SKY/WX    TMP DP  RH WIND       PRES   REMARKS
ORANGE         CLEAR     86  65  48 S8        30.01S
PORT ARTHUR    SUNNY     87  69  54 S6        29.99R
GALVESTON      MOSUNNY   82  76  81 S10       29.99S
ANGLETON       SUNNY     88  71  57 S16       29.97S
BAY CITY       CLEAR     87  72  61 S12       29.97S
$$

TEXAS COASTAL BEND, RIO GRANDE PLAINS DEEP SOUTH TEXAS

CITY           SKY/WX    TMP DP  RH WIND       PRES   REMARKS
VICTORIA       MOSUNNY   87  73  62 S17G24    29.95S
BEEVILLE       CLOUDY    88  77  70 SE15G23   29.92S
ROCKPORT       MOSUNNY   87  74  64 SE18G26   29.93S
PORT ARANSAS   PTCLDY    86  76  73 SE14G22   29.93S
PORT LAVACA    MOCLDY    87  75  67 S14G23    29.95S
CORPUS CHRISTI PTSUNNY   87  75  67 SE16G29   29.91F
KINGSVILLE NAS PTSUNNY   88  79  74 SE21G26   29.90F
COTULLA        MOSUNNY   95  69  42 SE15G24   29.86F
LAREDO         PTSUNNY   94  73  50 SE20G25   29.86F
BROWNSVILLE    PTSUNNY   88  75  65 SE21G29   29.90S
PORT ISABEL    PTSUNNY   88  75  65 SE22      29.89S
HEBBRONVILLE   PTCLDY    92  70  48 SE9G18    29.89F
MCALLEN        PTSUNNY   91  74  57 SE18G24   29.87S
WESLACO        CLOUDY    91  72  52 SE16      29.87S
FALFURRIAS     PTCLDY    91  73  56 E14G20    29.87F
EDINBURG       PTCLDY    94  72  49 SE12G20   29.87S
$$



USA.gov is the U.S. government's official web portal to all federal, state and local government web resources and services.